• In Russia
  • List of Countries
  • For 7 days
  • Water Temperature
  • Satellite Maps
  • Weather Map
  • Weather Widgets
  • user-avatar
    Login

    Hourly Weather Berat

    Today, 21 August, Monday

    Time Temperature Precipitation Wind Pressure Humidity
    00:00 +24°C° 0.5 mm 2 mps 742 mmHg 64%
    01:00 +24°C° 0 mm 3 mps 742 mmHg 65%
    02:00 +24°C° 1.2 mm 3 mps 742 mmHg 72%
    03:00 +23°C° 1.2 mm 2 mps 742 mmHg 79%
    04:00 +23°C° 1.2 mm 2 mps 742 mmHg 86%
    05:00 +24°C° 0.2 mm 2 mps 742 mmHg 81%
    06:00 +24°C° 0.2 mm 2 mps 742 mmHg 77%
    07:00 +25°C° 0.2 mm 1 mps 742 mmHg 72%
    08:00 +27°C° 0.2 mm 2 mps 742 mmHg 62%
    09:00 +29°C° 0.2 mm 2 mps 742 mmHg 53%
    10:00 +31°C° 0.2 mm 2 mps 742 mmHg 43%
    11:00 +31°C° 0.3 mm 3 mps 742 mmHg 42%
    12:00 +33°C° 0.3 mm 3 mps 741 mmHg 41%
    13:00 +33°C° 0.3 mm 4 mps 741 mmHg 40%
    14:00 +33°C° 0.4 mm 4 mps 741 mmHg 42%
    15:00 +32°C° 0.4 mm 4 mps 741 mmHg 44%
    16:00 +32°C° 0.4 mm 4 mps 741 mmHg 46%
    17:00 +29°C° 0.2 mm 4 mps 741 mmHg 53%
    18:00 +27°C° 0.2 mm 3 mps 741 mmHg 60%
    19:00 +25°C° 0.2 mm 3 mps 742 mmHg 66%
    20:00 +25°C° 0 mm 3 mps 742 mmHg 69%
    21:00 +24°C° 0 mm 2 mps 742 mmHg 72%
    22:00 +23°C° 0 mm 2 mps 743 mmHg 75%
    23:00 +23°C° 0 mm 2 mps 743 mmHg 74%

    Tomorrow, 22 August, Tuesday

    Time Temperature Precipitation Wind Pressure Humidity
    00:00 +21°C° 0 mm 2 mps 743 mmHg 74%
    01:00 +21°C° 0 mm 2 mps 743 mmHg 74%
    02:00 +20°C° 0 mm 3 mps 743 mmHg 72%
    03:00 +20°C° 0 mm 3 mps 743 mmHg 71%
    04:00 +19°C° 0 mm 3 mps 743 mmHg 70%
    05:00 +20°C° 0 mm 3 mps 743 mmHg 64%
    06:00 +21°C° 0 mm 3 mps 744 mmHg 57%
    07:00 +22°C° 0 mm 3 mps 744 mmHg 51%
    08:00 +25°C° 0 mm 3 mps 744 mmHg 45%
    09:00 +27°C° 0 mm 3 mps 744 mmHg 39%
    10:00 +29°C° 0 mm 3 mps 744 mmHg 34%
    11:00 +30°C° 0 mm 3 mps 744 mmHg 31%
    12:00 +32°C° 0 mm 4 mps 744 mmHg 28%
    13:00 +33°C° 0 mm 4 mps 744 mmHg 25%
    14:00 +33°C° 0 mm 4 mps 743 mmHg 25%
    15:00 +33°C° 0 mm 5 mps 743 mmHg 25%
    16:00 +32°C° 0 mm 5 mps 743 mmHg 24%
    17:00 +29°C° 0 mm 4 mps 743 mmHg 31%
    18:00 +26°C° 0 mm 3 mps 743 mmHg 37%
    19:00 +24°C° 0 mm 3 mps 744 mmHg 43%
    20:00 +22°C° 0 mm 3 mps 744 mmHg 44%
    21:00 +21°C° 0 mm 2 mps 744 mmHg 46%
    22:00 +20°C° 0 mm 2 mps 744 mmHg 47%
    23:00 +20°C° 0 mm 2 mps 744 mmHg 45%

    Day after tomorrow, 23 August, Wednesday

    Time Temperature Precipitation Wind Pressure Humidity
    00:00 +20°C° 0 mm 2 mps 744 mmHg 43%
    01:00 +20°C° 0 mm 2 mps 744 mmHg 41%
    02:00 +19°C° 0 mm 2 mps 744 mmHg 41%
    03:00 +19°C° 0 mm 2 mps 744 mmHg 41%
    04:00 +19°C° 0 mm 2 mps 744 mmHg 41%
    05:00 +20°C° 0 mm 2 mps 745 mmHg 39%
    06:00 +23°C° 0 mm 2 mps 745 mmHg 37%
    07:00 +25°C° 0 mm 2 mps 745 mmHg 36%
    08:00 +27°C° 0 mm 1 mps 745 mmHg 33%
    09:00 +29°C° 0 mm 1 mps 746 mmHg 30%
    10:00 +31°C° 0 mm 1 mps 746 mmHg 27%
    11:00 +32°C° 0 mm 2 mps 746 mmHg 25%
    12:00 +33°C° 0 mm 3 mps 745 mmHg 24%
    13:00 +34°C° 0 mm 4 mps 745 mmHg 22%
    14:00 +34°C° 0 mm 4 mps 745 mmHg 23%
    15:00 +33°C° 0 mm 4 mps 745 mmHg 24%
    16:00 +33°C° 0 mm 4 mps 745 mmHg 25%
    17:00 +29°C° 0 mm 4 mps 745 mmHg 31%
    18:00 +26°C° 0 mm 3 mps 745 mmHg 37%
    19:00 +24°C° 0 mm 2 mps 745 mmHg 43%
    20:00 +23°C° 0 mm 2 mps 746 mmHg 44%
    21:00 +23°C° 0 mm 2 mps 746 mmHg 45%
    22:00 +21°C° 0 mm 2 mps 746 mmHg 45%
    23:00 +21°C° 0 mm 2 mps 746 mmHg 45%

    24 August, Thursday

    Time Temperature Precipitation Wind Pressure Humidity
    00:00 +21°C° 0 mm 2 mps 746 mmHg 44%
    01:00 +20°C° 0 mm 2 mps 746 mmHg 43%
    02:00 +20°C° 0 mm 2 mps 746 mmHg 43%
    03:00 +20°C° 0 mm 2 mps 746 mmHg 42%
    04:00 +20°C° 0 mm 2 mps 746 mmHg 42%
    05:00 +21°C° 0 mm 2 mps 746 mmHg 40%
    06:00 +24°C° 0 mm 2 mps 747 mmHg 38%
    07:00 +25°C° 0 mm 2 mps 747 mmHg 36%
    08:00 +28°C° 0 mm 2 mps 747 mmHg 32%
    09:00 +30°C° 0 mm 2 mps 747 mmHg 28%
    10:00 +32°C° 0 mm 1 mps 747 mmHg 24%
    11:00 +34°C° 0 mm 2 mps 747 mmHg 23%
    12:00 +35°C° 0 mm 2 mps 747 mmHg 22%
    13:00 +35°C° 0 mm 3 mps 746 mmHg 20%
    14:00 +35°C° 0 mm 3 mps 746 mmHg 21%
    15:00 +35°C° 0 mm 4 mps 746 mmHg 22%
    16:00 +35°C° 0 mm 4 mps 746 mmHg 22%
    17:00 +31°C° 0 mm 3 mps 746 mmHg 27%
    18:00 +28°C° 0 mm 3 mps 746 mmHg 33%
    19:00 +25°C° 0 mm 2 mps 746 mmHg 38%
    20:00 +25°C° 0 mm 2 mps 746 mmHg 37%
    21:00 +24°C° 0 mm 2 mps 747 mmHg 37%
    22:00 +24°C° 0 mm 2 mps 747 mmHg 37%
    23:00 +24°C° 0 mm 2 mps 747 mmHg 36%

    25 August, Friday

    Time Temperature Precipitation Wind Pressure Humidity
    00:00 +23°C° 0 mm 2 mps 747 mmHg 35%
    01:00 +23°C° 0 mm 2 mps 747 mmHg 34%
    02:00 +23°C° 0 mm 2 mps 747 mmHg 33%
    03:00 +21°C° 0 mm 2 mps 747 mmHg 33%
    04:00 +21°C° 0 mm 2 mps 747 mmHg 32%
    05:00 +24°C° 0 mm 2 mps 747 mmHg 31%
    06:00 +25°C° 0 mm 2 mps 747 mmHg 30%
    07:00 +27°C° 0 mm 2 mps 747 mmHg 29%
    08:00 +29°C° 0 mm 2 mps 747 mmHg 25%
    09:00 +32°C° 0 mm 1 mps 747 mmHg 22%
    10:00 +34°C° 0 mm 1 mps 748 mmHg 18%
    11:00 +36°C° 0 mm 2 mps 747 mmHg 18%
    12:00 +36°C° 0 mm 2 mps 747 mmHg 17%
    13:00 +37°C° 0 mm 3 mps 747 mmHg 17%
    14:00 +37°C° 0 mm 3 mps 746 mmHg 18%
    15:00 +36°C° 0 mm 3 mps 746 mmHg 19%
    16:00 +36°C° 0 mm 3 mps 746 mmHg 20%
    17:00 +33°C° 0 mm 3 mps 746 mmHg 25%
    18:00 +29°C° 0 mm 2 mps 746 mmHg 30%
    19:00 +26°C° 0 mm 1 mps 746 mmHg 35%
    20:00 +26°C° 0 mm 1 mps 746 mmHg 36%
    21:00 +25°C° 0 mm 1 mps 747 mmHg 36%
    22:00 +25°C° 0 mm 2 mps 747 mmHg 36%
    23:00 +24°C° 0 mm 2 mps 747 mmHg 37%

    26 August, Saturday

    Time Temperature Precipitation Wind Pressure Humidity
    00:00 +24°C° 0 mm 2 mps 747 mmHg 37%
    01:00 +24°C° 0 mm 2 mps 747 mmHg 37%
    02:00 +23°C° 0 mm 2 mps 746 mmHg 39%
    03:00 +23°C° 0 mm 2 mps 746 mmHg 40%
    04:00 +23°C° 0 mm 2 mps 746 mmHg 41%
    05:00 +24°C° 0 mm 2 mps 747 mmHg 40%
    06:00 +26°C° 0 mm 2 mps 747 mmHg 38%
    07:00 +27°C° 0 mm 2 mps 747 mmHg 37%
    08:00 +30°C° 0 mm 2 mps 747 mmHg 32%
    09:00 +32°C° 0 mm 1 mps 747 mmHg 26%
    10:00 +35°C° 0 mm 1 mps 747 mmHg 21%
    11:00 +36°C° 0 mm 2 mps 746 mmHg 20%
    12:00 +37°C° 0 mm 2 mps 746 mmHg 19%
    13:00 +38°C° 0 mm 3 mps 746 mmHg 18%
    14:00 +37°C° 0 mm 3 mps 745 mmHg 19%
    15:00 +37°C° 0 mm 3 mps 745 mmHg 20%
    16:00 +36°C° 0 mm 3 mps 745 mmHg 21%
    17:00 +34°C° 0 mm 2 mps 745 mmHg 27%
    18:00 +30°C° 0 mm 2 mps 745 mmHg 32%
    19:00 +27°C° 0 mm 1 mps 745 mmHg 38%
    20:00 +26°C° 0 mm 1 mps 745 mmHg 39%
    21:00 +26°C° 0 mm 1 mps 746 mmHg 40%
    22:00 +25°C° 0 mm 1 mps 746 mmHg 40%
    23:00 +25°C° 0 mm 1 mps 746 mmHg 41%
    Show more